Showing default

MAROC TUBSAT, 27004

Orbit data source: Space-Track

MAROC TUBSAT, 27004 is a payload satellite owned by CRTS (DE) in SSO that was launched on Mon, 10 Dec 2001 UTC via a ZENIT-2 launch vehicle from the Tyuratam Missile And Space Complex (TTMTR). Payload-class satellites include a variety of spacecraft equipped with specific instruments for various scientific and technological missions. These include communications satellites like Starlink; space stations such as the ISS; scientific satellites like the Hubble; Earth observation satellites from companies like Planet Labs, Umbra, and HawkEye 360; GPS; miniature CubeSats for education and research; and military/defense satellites.

Loading next visibility...
Identifier
27004, 2001-056D
Orbit
SSO
Country
Flag of DEDE / GER
Related business
Manufacturer
TUB
Mission
Operational Civil Imaging
Bus & Motor
TUBSAT, Unknown motor
Mass
45 kg wet, 45 kg dry
Launch date (UTC)
2001-12-10 (25 years ago)
Launch vehicle
ZENIT-2
Launch site
Tyuratam Missile And Space Complex (TTMTR)
Object type
Payload
Rocket body
Debris
Shape & HBR
Box, 1.0 m
Radar Cross Section
0.200 m², Medium (>0.1 m² and < 1m²)

Expand to show TLE details & history
Last TLE update: 10 hours ago

TLE from 10 hours ago
0 MAROC TUBSAT
1 27004U 01056D   26227.51165458 -.00000043  00000-0  38631-5 0  9993
2 27004  99.8123  45.5017 0019720 353.5000  73.2624 13.70264614234315
Epoch: 2026-08-15T12:16Z
TLE epoch observation values (Epoch: 2026-08-15T12:16:46.955Z)
Latitude
65.16748°
Longitude
-124.44251°
Altitude
1,005.624 km
Speed
7.357 km/s
True Right ascension
01h 34m 41s
True Declination
65° 02' 26"
Sunlit
Object was in daylight at epoch
Visualization orbit readout
Latitude
Unknown
Longitude
Unknown
Altitude
Unknown
Speed
Unknown
Apparent Right ascension
Unknown
Apparent Declination
Unknown
Sunlit
N/A
Visualization observer readout
Local Sidereal Time
13:01:48
Azimuth
Unknown
Elevation
Unknown
Doppler factor
Unknown
Orbital elements
Apogee altitude
1,010.443 km
Perigee altitude
981.36 km
Semi-major axis
7,374.038 km
Eccentricity
0.00197
Inclination
99.8123°
RAAN
45.5017°
Arg. of periapsis
353.5°
True anomaly
73.47895°
Mean anomaly
73.2624°
Eccentric anomaly
73.37066°
Mean motion
3.42756 °/min
Orbital period
105.03 mins
BSTAR
0.0000038631
Loading maneuver chart data...
Computing Atmospheric mass density...
Loading historical data...
Loading historical data...
Loading historical data...
Loading historical data...
Loading historical data...
Loading historical data...
Loading historical data...

Documentation

Showing up to 5 results
|